Reflectivity
-7 -3 4 4 3 5 8 6 8 9 7 3 3 7 4 7 3 -6 -18 -19 5 4
-7 2 3 6 6 9 9 10 13 11 10 7 7 7 7 4 6 7 1 -9 -13 3
-3 5 6 4 6 4 5 9 7 13 10 11 12 16 20 19 18 13 11 8 1 6
-0 3 6 5 6 5 7 6 7 19 21 25 18 17 21 18 17 23 13 7 18 1
1 -1 -0 2 10 7 8 11 9 19 5 5 8 16 20 19 19 17 17 15 10 -3
-14 -3 2 0 2 6 14 17 14 17 14 6 9 10 11 17 13 17 14 9 -9 -20
-12 -3 -2 -3 -18 -7 -2 -7 -9 12 17 21 18 13 8 6 10 13 7 3 10 3
-16 -20 -20 -20 -20 -18 -3 2 -9 -20 -19 -12 5 15 15 17 15 10 1 6 9 9
-20 -20 -20 -20 -20 -20 -20 -20 -20 -4 -8 -1 5 -20 -12 -19 4 5 -0 3 -13 -12
-20 -20 -20 -20 -20 -20 -20 -20 -20 -1 -11 -20 -20 -20 -20 -20 3 3 2 -14 -3 1
-20 -20 -20 -20 -20 -20 -20 -20 -20 -8 -9 -20 -20 -20 -20 -20 -20 -7 -0 1 1 -2
-20 -20 -20 -20 -20 -20 -20 -20 -20 -20 -20 -9 -20 -20 -20 -20 -20 -20 -20 -8 -18 -17
-20 -20 -20 -20 -20 -20 -20 -20 -20 -20 -20 -20 -6 -20 -20 -20 -20 -20 -20 -20 -20 -20
-20 -20 -20 -20 -20 -20 -20 -20 -20 -20 -20 -20 -20 -20 -20 -20 -20 -20 -20 -20 -20 -20
Wind_Speed
14 10 10 12 12 10 10 11 15 14 14 14 14 12 12 10 11 11 10 15 14 11
12 13 12 14 12 10 12 12 14 14 13 13 12 11 12 9 11 11 10 11 15 14
12 12 12 12 14 15 15 16 16 14 13 11 12 12 11 7 11 10 9 9 12 13
12 13 12 13 14 15 16 16 17 15 15 13 14 14 12 13 13 10 10 10 9 9
11 13 13 13 15 16 17 17 17 14 16 16 16 15 15 15 15 15 15 14 13 12
12 12 13 13 14 15 17 17 18 16 16 17 17 16 16 15 15 16 16 15 15 16
11 11 11 12 13 15 16 16 18 17 15 17 18 17 16 17 16 16 16 16 17 17
10 10 11 12 14 15 15 16 17 18 18 17 18 15 17 16 17 16 16 16 16 17
9 10 12 12 14 15 16 16 17 17 17 17 14 27 28 21 16 18 18 17 17 16
9 10 11 12 12 14 15 15 17 17 18 20 19 27 26 26 16 17 19 19 17 16
8 9 10 11 12 12 13 15 15 17 18 18 18 27 24 22 17 16 19 20 20 19
7 9 9 11 12 11 11 13 14 15 17 18 18 29 24 16 15 16 18 17 21 19
8 9 9 9 10 10 10 12 11 14 16 21 18 29 29 20 12 15 13 15 18 30
8 8 9 9 9 9 10 10 11 13 13 16 20 21 28 28 14 12 12 13 13 14
Wind_Direction
348 337 331 335 332 325 323 326 326 322 313 305 298 284 268 264 260 254 247 258 252 262
354 352 347 346 342 340 339 338 333 334 329 322 311 294 278 255 251 240 244 250 261 253
359 358 357 355 356 356 352 351 348 346 345 341 349 340 320 266 226 228 237 245 252 259
3 0 3 4 2 4 2 0 359 0 3 1 7 9 11 23 25 61 50 30 17 8
6 9 8 8 4 8 7 9 8 5 17 16 15 19 23 34 37 44 41 39 34 21
14 12 10 10 13 15 11 11 16 15 22 22 22 22 27 31 37 40 40 36 39 31
19 11 14 16 20 27 23 21 25 24 25 28 27 27 32 33 35 38 39 36 36 39
20 14 23 24 29 29 30 30 26 32 33 33 34 30 26 34 38 36 38 37 34 34
25 27 31 30 33 34 31 33 27 32 36 36 36 39 39 40 39 39 35 35 34 30
28 34 33 34 33 36 34 30 33 26 31 35 34 34 40 43 41 40 40 34 31 31
34 38 37 39 39 37 37 38 36 34 30 36 31 30 34 44 50 47 43 38 33 33
49 44 41 44 43 40 42 44 44 39 35 34 32 31 30 38 45 49 47 43 39 35
43 53 46 47 52 45 48 50 51 49 44 36 36 32 31 30 36 42 41 43 38 35
53 54 49 54 48 50 52 49 48 52 51 47 36 36 37 35 37 38 40 38 33 32